• Processing (Info)

  • MPEC 2006-A23 : 2006 AS2

    The following Minor Planet Electronic Circular may be linked-to from your own Web pages, but must not otherwise be redistributed electronically.

    A form allowing access to any MPEC is at the bottom of this page.


    Read MPEC 2006-A22 Read MPEC 2006-A24


    M.P.E.C. 2006-A23                                Issued 2006 Jan. 6, 20:07 UT
    
         The Minor Planet Electronic Circulars contain information on unusual
             minor planets and routine data on comets.  They are published
       on behalf of Commission 20 of the International Astronomical Union by the
              Minor Planet Center, Smithsonian Astrophysical Observatory,
                              Cambridge, MA 02138, U.S.A.
    
                      Supported in part by the Brinson Foundation
                      Supported in part by the TABASGO Foundation
                 Prepared using the Tamkin Foundation Computer Network
    
                                  MPC@CFA.HARVARD.EDU
              URL http://cfa-www.harvard.edu/iau/mpc.html  ISSN 1523-6714
    
                                       2006 AS2
    
    Observations:
         K06A02S* C2006 01 05.41164 10 23 57.62 +08 20 52.9          19.7 V EA023G96
         K06A02S  C2006 01 05.41895 10 23 59.60 +08 20 43.5          19.6 V EA023G96
         K06A02S  C2006 01 05.42625 10 24 01.58 +08 20 33.8          19.7 V EA023G96
         K06A02S  C2006 01 05.43361 10 24 03.56 +08 20 24.2          19.6 V EA023G96
         K06A02S  C2006 01 05.47599 10 24 15.08 +08 19 28.0          19.9 V EA023G96
         K06A02S  C2006 01 05.48596 10 24 17.74 +08 19 15.2          19.7 V EA023G96
         K06A02S  C2006 01 05.49605 10 24 20.48 +08 19 01.7          19.5 V EA023G96
         K06A02S  C2006 01 05.50598 10 24 23.22 +08 18 48.3          19.7 V EA023G96
         K06A02S  C2006 01 06.24034 10 27 55.24 +08 02 13.8          20.0 R EA023734
         K06A02S  C2006 01 06.24934 10 27 57.80 +08 02 00.8          19.7 R EA023734
         K06A02S  C2006 01 06.25834 10 28 00.47 +08 01 48.8          19.2 R EA023734
         K06A02S 5C2006 01 06.40116 10 28 41.83 +07 58 34.1          19.0 R EA023673
         K06A02S 5C2006 01 06.40417 10 28 42.69 +07 58 29.7                 EA023673
         K06A02S 5C2006 01 06.40938 10 28 44.17 +07 58 22.1                 EA023673
         K06A02S 5C2006 01 06.41551 10 28 45.99 +07 58 13.6                 EA023673
         K06A02S  C2006 01 06.46735 10 29 00.54 +07 57 02.3          19.9 V EA023G96
         K06A02S  C2006 01 06.47413 10 29 02.48 +07 56 52.4          19.8 V EA023G96
         K06A02S  C2006 01 06.48086 10 29 04.43 +07 56 42.9          19.7 V EA023G96
    
    Observer details:
    673 Table Mountain Observatory, Wrightwood.  Observer J. Young.  0.6-m f/16
        Cassegrain + CCD.
    734 Farpoint Observatory.  Observer D. Tibbets.  0.7-m reflector + CCD.
    G96 Mt. Lemmon Survey.  Observers R. A. Kowalski, E. J. Christensen.
        Measurers E. C. Beshore, E. J. Christensen, G. J. Garradd, A. D. Grauer,
        R. E. Hill, R. A. Kowalski, S. M. Larson, R. H. McNaught.  1.5-m reflector
        + CCD.
    
    Orbital elements:
    2006 AS2                                            PHA, Earth MOID = 0.0106 AU
    Epoch 2006 Jan. 5.0 TT = JDT 2453740.5                  MPC
    M 338.35061              (2000.0)            P               Q
    n   0.32215817     Peri.   79.90612     -0.89685807     +0.44076481
    a   2.1074468      Node   126.23705     -0.42167794     -0.82672106
    e   0.6417071      Incl.    2.63211     -0.13354144     -0.34965507
    P   3.06           H   20.2           G   0.15
    From 18 observations 2006 Jan. 5-6.
    
    Ephemeris:
    2006 AS2                 a,e,i = 2.11, 0.64, 3                   q = 0.7551
    Date    TT    R. A. (2000) Decl.     Delta      r     Elong.  Phase     V
    2006 01 05    10 22.05   +08 30.0    0.343    1.232   130.2    37.6    19.8
    2006 01 15    11 23.73   +03 30.0    0.236    1.134   124.3    45.8    19.1
    2006 01 25    13 21.33   -06 14.7    0.168    1.037   103.6    67.3    18.8
    2006 02 04    16 07.97   -16 16.0    0.175    0.946    71.9    98.0    19.8
    2006 02 14    18 04.58   -18 32.5    0.249    0.866    54.1   112.4    21.2
    
    Gareth V. Williams           (C) Copyright 2006 MPC           M.P.E.C. 2006-A23
    

    Read MPEC 2006-A22 Read MPEC 2006-A24


    MPEC number:

    Enter an MPEC number in one of the following forms:

    • 1997-B01 (the full form)
    • J97B01 (the packed version of the full form)
    • B01 (the abbreviated form)